Location: Bissex
(13.2167°N, 59.5500°W)
Time: 08:54:42
(UTC+00:00)

Daily predictions for brighter satellites

Satellite Brightness Start Highest point End
(mag) Time Altitude Azimuth Time Altitude Azimuth Time Altitude Azimuth
ARIANE 5 R/B 3.3 22:03:17 10° SW 22:05:17 27° SSE 22:10:11 10° ESE
IUS-18 SRM-1 4.0 21:50:20 10° WSW 22:11:10 76° SSE 22:15:15 10° ENE
Atlas Centaur 2 3.2 22:11:48 10° S 22:14:00 14° SSE 22:16:03 10° ESE
Centaur D-1A AC-31 3.3 22:09:07 10° SSW 22:14:01 16° S 22:16:45 10° SE
Okean 1 Rocket 3.4 22:11:46 10° S 22:16:05 73° W 22:20:24 10° N
USA 116 4.0 22:13:56 10° N 22:17:05 55° WNW 22:20:05 10° SSW
Cosmos 2219 Rocket 2.7 22:14:16 10° N 22:19:22 36° ENE 22:24:27 10° SE
COSMOS 2455 2.8 22:13:37 10° NNW 22:19:36 72° ENE 22:25:33 10° SSE
IUS-13 SRM-1 4.4 22:17:39 10° NNW 22:19:58 18° NE 22:24:57 10° ENE
Cosmos 2082 3.7 22:17:45 10° S 22:23:25 70° ESE 22:29:06 10° NNE
Hubble Space Telescope 2.8 22:22:59 10° S 22:25:10 14° SSE 22:27:21 10° ESE
ARIANE 5 R/B 4.3 22:23:42 10° S 22:25:32 13° SSE 22:28:38 10° ESE
GPS 2-15 Rocket1 3.4 22:21:23 10° W 22:25:59 63° NNW 22:30:28 11° ENE
Cosmos 1025 Rocket 2.9 22:23:44 10° N 22:28:00 83° E 22:32:18 10° S
Okean-O 4.3 22:26:42 10° S 22:30:49 38° W 22:34:55 10° NNW
SL-4 R/B 3.4 22:27:38 10° WSW 22:31:31 38° NW 22:35:08 10° NNE
Cosmos 2333 4.2 22:27:27 10° NNW 22:33:10 86° ENE 22:38:55 10° SSE
Cosmos 2360 Rocket 4.1 22:30:16 10° NW 22:35:18 34° WSW 22:40:22 10° SSW
GPS 2-05 Rocket1 2.2 22:33:01 10° WNW 22:35:46 77° SW 22:37:48 16° SE
Ariane Rocket 4.1 22:32:07 10° SE 22:35:58 22° ENE 22:39:48 10° NNE
Cosmos 2227 Rocket 3.4 22:31:03 10° SW 22:36:25 46° WNW 22:41:49 10° N
GPS 2-17 Rocket1 3.9 22:32:22 10° WNW 22:36:32 37° N 22:39:40 16° ENE
Cosmos 1766 4.4 22:35:48 10° SE 22:38:52 22° E 22:41:56 10° NE
Cosmos 2251 Rocket 4.1 22:33:41 10° NNW 22:38:58 64° WSW 22:44:13 10° S
YAOGAN 1 2.5 22:39:45 10° SSE 22:44:02 71° ENE 22:48:20 10° N
ADEOS Rocket 4.3 22:39:35 10° NE 22:45:54 27° E 22:52:03 10° SSE
Cosmos 2297 Rocket 4.0 22:41:12 10° SW 22:46:13 33° WNW 22:51:15 10° N
Cosmos 405 Rocket 2.8 22:43:55 10° S 22:47:34 71° W 22:51:14 10° N
Cosmos 389 Rocket 4.1 22:44:57 10° NNE 22:46:25 18° NE 22:46:25 18° NE
COSMOS 2428 2.6 22:43:04 10° NNW 22:48:44 78° ENE 22:54:25 10° SSE
ASTEX 1 3.6 22:45:16 10° NNE 22:49:58 47° E 22:54:41 10° S
BREEZE-M DEB (TANK) 4.3 22:36:26 10° SW 22:51:57 81° SE 22:55:41 14° NE
CZ-4 R/B 2.1 22:49:53 10° S 22:53:37 51° W 22:57:25 10° NNW
Cosmos 2181 Rocket 3.9 22:47:52 10° S 22:54:00 67° E 23:00:13 10° N
Cosmos 1420 Rocket 4.1 22:49:15 10° SSW 22:54:31 82° WNW 22:59:49 10° N
NOSS 3-4 (A) 4.5 22:47:43 10° N 22:54:39 38° ENE 22:59:28 20° ESE
NOSS 3-4 (C) 4.5 22:47:52 10° N 22:54:45 37° ENE 22:59:26 20° ESE
Cosmos 1818 3.9 22:53:37 10° S 22:58:42 43° ESE 23:02:22 18° NE
Cosmos 407 Rocket 4.0 22:59:30 10° N 23:04:09 35° ENE 23:04:47 34° E
NOSS 0 Rocket 4.0 22:59:21 10° N 23:05:23 53° ENE 23:09:55 18° SE
CSL-04 Rocket 4.1 23:00:37 10° S 23:06:01 66° WSW 23:11:29 10° NNW
Cosmos 1892 Rocket 4.5 23:02:48 10° NNE 23:05:33 29° NE 23:05:33 29° NE
Lacrosse 5 3.8 23:03:17 10° WSW 23:07:38 28° NW 23:12:00 10° N
SAR-Lupe-2 4.2 23:08:58 10° N 23:12:25 54° WNW 23:15:53 10° SSW
In-Cosmos 22 4.2 23:10:17 10° N 23:15:38 52° E 23:18:33 27° SSE
Cosmos 1939 Rocket 2.6 23:14:37 40° SSE 23:15:54 80° ENE 23:19:45 10° N
Cosmos 2341 Rocket 3.9 23:10:07 10° N 23:16:14 63° E 23:22:22 10° SSE
Cosmos 1805 3.3 23:19:14 10° S 23:23:07 75° W 23:27:00 10° N
ATLAS CENTAUR R/B 2.9 23:18:57 10° SW 23:23:29 44° WNW 23:28:11 10° N
Cosmos 1455 Rocket 4.3 23:22:04 10° SSW 23:26:12 41° W 23:30:23 10° NNW
Cosmos 1544 Rocket 4.2 23:22:01 10° SSW 23:26:23 55° W 23:30:45 10° N
MOS 1 4.4 23:29:23 53° ENE 23:29:23 53° ENE 23:34:36 10° N
SL-8 Rocket 3.9 23:23:19 10° N 23:29:19 54° E 23:29:33 54° E
Cosmos 2237 Rocket 2.0 23:30:21 10° N 23:36:01 71° ENE 23:36:02 71° ENE
ATLAS 2AS CENTAUR R/B 2.9 23:30:33 10° NNW 23:37:28 64° WSW 23:42:01 20° S
Okean 1-7 Rocket 3.8 23:33:14 10° N 23:37:08 65° NNW 23:37:08 65° NNW
Cosmos 2333 Rocket 4.1 23:37:10 10° NW 23:41:58 28° WSW 23:46:47 10° SSW
GPS 2-14 Rocket1 4.1 23:39:04 10° WNW 23:41:23 34° WNW 23:41:23 34° WNW
Cosmos 2227 4.1 23:37:43 10° SSW 23:42:46 73° S 23:42:46 73° S
Cosmos 1980 3.6 23:41:03 10° NNW 23:46:41 81° WSW 23:46:58 78° SSW
